Welcome to the New NWS' Forecast!
Most changes are behind the scenes, but click here for differences you might notice.
Latest weather observations around

Glens Falls, Floyd Bennett Memorial Airport (KGFL)

Using English Units (Switch to International System of Units)
Date/ Time (EDT) Wind (mph) Vis. (mi) Weather Sky Cond. Temp (°F) Rel. Humidity Wind Chill (°F) Heat Index (°F) Pressure Precip. (in)
Air Dwpt 6 hour Altimeter (inHg) Sea level (inHg) 1 hr 3 hr 6 hr
Max Min
Sep 18 18:53 Calm 10 Mostly Clear FEW070 76 70     82%   77 29.75 29.75      
Sep 18 17:53 S 7 10 Mostly Cloudy BKN065 BKN080 77 70     79%   78 29.73 29.72      
Sep 18 16:53 S 6 10 Mostly Cloudy BKN065 BKN085 80 70     71%   83 29.72 29.71      
Sep 18 15:53 NNW 7 10 Clear CLR 85 63     48%   86 29.72 29.71      
Sep 18 14:53 ESE 5 10 Clear CLR 82 69     65%   85 29.73 29.72      
Sep 18 13:53 Calm 10 Mostly Clear FEW039 81 67     62%   83 29.75 29.74     0
Sep 18 11:53 SE 3 10 Mostly Clear FEW014 76 70     82%   77 29.77 29.76      
Sep 18 10:53 Calm 10 Mostly Cloudy FEW009 BKN045 73 69     87%   74 29.78 29.78   0  
Sep 18 09:53 N 3 10 Cloudy OVC050 70 68     93%     29.79 29.78      
Sep 18 09:10 NW 7 10 Cloudy BKN033 OVC065 69 67     93%     29.8        
Sep 18 08:53 NNW 6 10 Cloudy OVC028 69 68     96%     29.79 29.79 0    
Sep 18 08:18 N 5 10 Cloudy SCT016 OVC022 69 68     96%     29.79   0    
Sep 18 07:53 Calm 10 Light Rain OVC012 69 69     100%     29.8 29.8 0   0
Sep 18 07:26 N 3 7 Light Rain SCT005 BKN011 OVC041 69 69     100%     29.8   0    
Sep 18 07:00 Calm 6 Light Rain and Fog/Mist SCT005 OVC023 68 68     100%     29.8   0    
Sep 18 06:53 Calm 5 Light Rain and Fog/Mist BKN005 OVC023 68 68     100%     29.8 29.79 0    
Sep 18 06:44 Calm 4 Light Rain and Fog/Mist BKN005 OVC025 68 68     100%     29.8   0    
Sep 18 06:14 N 3 5 Light Rain and Fog/Mist BKN003 BKN019 OVC025 69 69     100%     29.8   0    
Sep 18 05:53 Calm 8 Light Rain BKN002 OVC018 69 69     100%     29.8 29.8 0    
Sep 18 05:45 Calm 8 Light Rain BKN002 BKN013 OVC018 69 69     100%     29.8   0    
Sep 18 05:39 Calm 8 Light Rain SCT002 BKN016 OVC100 69 69     100%     29.8   0    
Sep 18 05:30 Calm 7 Light Rain FEW002 BKN014 BKN110 68 68     100%     29.81   0    
Sep 18 05:02 E 3 6 Rain and Fog/Mist SCT012 BKN110 69 69     100%     29.81   0    
Sep 18 04:53 E 3 6 Light Rain and Fog/Mist BKN010 BKN023 OVC110 69 69     100%     29.81 29.8 0 0  
Sep 18 04:50 Calm 5 Light Rain and Fog/Mist FEW007 BKN013 OVC036 70 70     100%     29.82   0    
Sep 18 04:42 SSE 3 4 Rain and Fog/Mist SCT005 BKN015 OVC036 69 69     100%     29.83   0    
Sep 18 04:34 SSE 6 4 Rain and Fog/Mist SCT003 BKN008 OVC035 69 69     100%     29.83   0    
Sep 18 04:06 Calm 4 Light Rain and Fog/Mist BKN003 BKN007 OVC013 69 69     100%     29.84   0    
Sep 18 03:53 Calm 3 Light Rain and Fog/Mist SCT004 BKN009 OVC050 69 69     100%     29.85 29.84 0    
Sep 18 03:37 Calm 4 Light Rain and Fog/Mist FEW008 BKN050 OVC090 69 69     100%     29.85   0    
Sep 18 03:26 Calm 4 Rain and Fog/Mist SCT010 BKN055 OVC095 69 69     100%     29.85   0    
Sep 18 03:17 Calm 3 Light Rain and Fog/Mist BKN010 BKN050 OVC110 69 69     100%     29.85   0    
Sep 18 03:13 Calm 2 Rain and Fog/Mist SCT008 BKN015 OVC050 69 69     100%     29.85   0    
Sep 18 03:10 Calm 2 Rain and Fog/Mist BKN008 BKN015 OVC050 69 69     100%     29.85   0    
Sep 18 03:07 Calm 2 Light Rain and Fog/Mist SCT008 BKN015 OVC050 69 69     100%     29.86   0    
Sep 18 03:00 Calm 4 Light Rain and Fog/Mist SCT006 BKN010 OVC036 69 69     100%     29.86   0    
Sep 18 02:53 Calm 5 Light Rain and Fog/Mist BKN006 OVC014 69 69     100%     29.86 29.85 0    
Sep 18 01:53 Calm 4 Light Rain and Fog/Mist OVC008 69 69     100%     29.89 29.88 0   0
Sep 18 01:40 Calm 4 Rain and Fog/Mist OVC009 70 69     97%     29.89   0    
Sep 18 00:53 S 5 10 Cloudy BKN012 OVC046 71 68     90%   72 29.9 29.89      
Sep 18 00:34 Calm 10 Cloudy BKN013 BKN018 OVC050 71 68     90%   72 29.91        
Sep 17 23:53 S 6 10 Mostly Clear FEW039 FEW050 70 68     93%     29.92 29.91      
Sep 17 22:53 SSW 6 10 Clear CLR 71 68     90%   72 29.92 29.91      
Sep 17 21:53 SSW 6 10 Clear CLR 71 68     90%   72 29.92 29.91      
Sep 17 20:53 SSW 7 10 Clear CLR 71 67     87%   72 29.93 29.93      
Sep 17 19:53 Calm 10 Mostly Clear FEW060 70 67     90%     29.94 29.93      
Sep 17 18:53 S 3 10 Clear CLR 72 66     82%   73 29.95 29.95      
Sep 17 17:53 S 7 10 Clear CLR 75 65     71%   76 29.97 29.96      
Sep 17 16:53 SSW 11 10 Clear CLR 76 63     64%   76 29.98 29.97      
Sep 17 15:53 S 10 10 Clear CLR 77 65     66%   78 29.99 29.98      
Sep 17 14:53 S 8 10 Clear CLR 78 67     69%   79 30 30      
Sep 17 13:53 S 11 10 Clear CLR 79 65     62%   80 30.03 30.02      
Sep 17 12:53 SW 11 10 Clear CLR 77 64     64%   77 30.05 30.04      
Sep 17 11:53 S 9 10 Clear CLR 77 67     71%   78 30.07 30.07      
Sep 17 10:53 SSW 8 10 Partly Cloudy SCT015 75 68     79%   76 30.09 30.09      
Sep 17 10:38 S 8 10 Mostly Cloudy BKN014 74 68     82%   75 30.1        
Sep 17 09:53 SSW 7 10 Mostly Clear FEW010 72 68     87%   73 30.12 30.11      
Sep 17 09:29 SSW 9 10 Mostly Clear FEW008 70 68     93%     30.12        
Sep 17 08:53 SSW 8 8 Mostly Cloudy BKN007 69 67     93%     30.12 30.11      
Sep 17 08:49 SSW 10 9 Mostly Cloudy BKN007 70 68     94%     30.12        
Sep 17 08:42 SSW 10 10 Partly Cloudy SCT007 69 67     93%     30.12        
Sep 17 08:03 SSW 8 6 Fog/Mist BKN006 68 67     96%     30.13        
Sep 17 07:53 SSW 9 6 Fog/Mist SCT007 68 68     100%     30.13 30.12      
Sep 17 06:53 SSW 7 8 Partly Cloudy FEW007 SCT065 67 67     100%     30.14 30.13      
Sep 17 06:19 SSW 5 10 Mostly Cloudy BKN007 67 67     100%     30.13        
Sep 17 05:53 SSW 7 9 Mostly Clear FEW005 66 66     100%     30.13 30.12      
Sep 17 05:50 SSW 6 8 Partly Cloudy SCT005 66 66     100%     30.13        
Sep 17 05:27 SSW 3 3 Fog/Mist BKN005 65 65     100%     30.13        
Sep 17 05:19 S 3 1.75 Fog/Mist BKN005 64 64     100%     30.13        
Sep 17 04:59 Calm 3 Fog/Mist BKN005 63 63     100%     30.13        
Sep 17 04:53 Calm 1 Fog/Mist VV005 62 62     100%     30.13 30.12      
Sep 17 04:48 Calm 0.5 Fog VV005 63 63     100%     30.13        
Sep 17 04:41 Calm 0.25 Fog FEW005 SCT080 61 61     100%     30.13        
Sep 17 04:31 Calm 0.75 Fog/Mist FEW004 SCT080 62 62     100%     30.13        
Sep 17 04:24 Calm 4 Fog/Mist FEW003 SCT080 63 63     100%     30.13        
Sep 17 04:09 Calm 1.25 Fog/Mist SCT003 63 63     100%     30.13        
Sep 17 03:59 Calm 0.5 Fog VV003 62 62     100%     30.13        
Sep 17 03:53 Calm 0.25 Fog VV002 61 61     100%     30.13 30.13      
Sep 17 03:36 Calm 0.5 Fog VV002 62 62     100%     30.14        
Sep 17 03:25 Calm 0.75 Fog/Mist VV003 62 62     100%     30.14        
Sep 17 03:13 Calm 0.75 Fog/Mist CLR 62 62     100%     30.14        
Sep 17 03:07 Calm 1 Fog/Mist VV005 63 63     100%     30.14        
Sep 17 02:53 Calm 2 Fog/Mist FEW004 63 63     100%     30.14 30.14      
Sep 17 02:49 Calm 1.25 Fog/Mist FEW004 64 64     100%     30.15        
Sep 17 02:45 Calm 0.75 Fog/Mist VV004 64 64     100%     30.15        
Sep 17 02:37 Calm 0.5 Fog VV002 64 64     100%     30.15        
Sep 17 02:26 Calm 1 Fog/Mist VV002 64 64     100%     30.15        
Sep 17 02:19 Calm 0.25 Fog VV002 64 64     100%     30.15        
Sep 17 02:08 Calm 0.75 Fog/Mist VV002 63 63     100%     30.15        
Sep 17 01:53 Calm 1.25 Fog/Mist FEW003 65 65     100%     30.15 30.14      
Sep 17 01:47 Calm 1.25 Fog/Mist FEW003 64 64     100%     30.15        
Sep 17 01:41 SSW 3 0.5 Fog VV003 63 63     100%     30.15        
Sep 17 01:32 Calm 1.75 Fog/Mist CLR 64 64     100%     30.15        
Sep 17 01:30 Calm 5 Fog/Mist CLR 65 65     100%     30.15        
Sep 17 01:23 NNW 3 2.5 Fog/Mist FEW002 65 65     100%     30.15        
Sep 17 01:08 Calm 3 Fog/Mist FEW002 65 65     100%     30.15        
Sep 17 00:58 Calm 1 Fog/Mist VV002 65 65     100%     30.15        
Sep 17 00:53 S 3 0.75 Fog/Mist CLR 66 66     100%     30.16 30.15      
Sep 17 00:38 Calm 0.25 Fog CLR 64 64     100%     30.16        
Sep 16 23:57 Calm 0.75 Fog/Mist CLR 67 67     100%     30.16        
Sep 16 23:53 Calm 2.5 Fog/Mist CLR 67 67     100%     30.16 30.16      
Sep 16 23:02 S 3 3 Fog/Mist FEW095 67 67     100%     30.17        
Sep 16 22:53 Calm 2.5 Fog/Mist FEW095 67 67     100%     30.17 30.16      
Sep 16 21:53 Calm 10 Cloudy OVC090 69 68     96%     30.17 30.16      
Sep 16 21:18 E 5 10 Clear CLR 69 69     100%     30.17        
Sep 16 21:11 NW 3 2.5 Fog/Mist CLR 69 69     100%     30.17        
Sep 16 21:02 Calm 0.75 Fog/Mist CLR 68 68     100%     30.16        
Sep 16 20:53 Calm 1.25 Fog/Mist CLR 68 68     100%     30.16 30.16      
Sep 16 20:51 Calm 1.75 Fog/Mist CLR 70 70     100%     30.16        
Sep 16 19:53 Calm 10 Clear CLR 71 71     100%   73 30.15 30.14      
Sep 16 18:53 Calm 10 Clear CLR 76 72     88%   77 30.15 30.14      
Sep 16 17:53 SSE 5 10 Clear CLR 82 71     69%   86 30.15 30.14      
Sep 16 16:53 SSE 6 10 Clear CLR 84 70     63%   88 30.15 30.14      
Sep 16 15:53 Calm 10 Clear CLR 84 68     59%   87 30.16 30.15      
Sep 16 14:53 ESE 5 10 Clear CLR 84 69     61%   88 30.17 30.17      
Sep 16 13:53 Calm 10 Clear CLR 83 70     65%   87 30.19 30.19      
Sep 16 12:53 SE 3 10 Clear CLR 80 70     71%   83 30.21 30.2      
Sep 16 11:53 Calm 10 Mostly Clear FEW090 77 68     74%   78 30.23 30.22      
Sep 16 10:53 S 6 10 Clear CLR 74 68     82%   75 30.23 30.22      
Sep 16 10:21 S 3 4 Fog/Mist FEW005 70 67     90%     30.24        
Sep 16 10:14 SSW 3 4 Fog/Mist BKN005 69 67     93%     30.24        
Sep 16 09:53 S 3 5 Fog/Mist OVC003 67 67     100%     30.24 30.24      
Sep 16 09:38 S 3 6 Fog/Mist OVC003 66 66     100%     30.24        
Sep 16 09:15 Calm 3 Fog/Mist OVC002 65 65     100%     30.24        
Sep 16 09:02 S 3 2 Fog/Mist OVC002 65 65     100%     30.24        
Sep 16 08:53 SSE 3 0.5 Fog OVC002 65 65     100%     30.24 30.23      
Sep 16 08:14 Calm 0.25 Fog VV002 64 64     100%     30.24        
Sep 16 08:07 Calm 0.5 Fog VV003 64 64     100%     30.24        
Sep 16 07:53 Calm 1.5 Fog/Mist OVC002 64 64     100%     30.23 30.23      
Sep 16 07:43 Calm 8 Cloudy OVC002 62 62     100%     30.23        
Sep 16 07:36 Calm 2.5 Fog/Mist OVC002 62 62     100%     30.23        
Sep 16 07:26 Calm 0.75 Fog/Mist OVC002 61 61     100%     30.23        
Sep 16 06:53 Calm 0.25 Fog VV002 61 61     100%     30.22 30.22      
Sep 16 06:19 Calm 0.25 Fog VV002 61 61     100%     30.21        
Sep 16 06:09 Calm 1.25 Fog/Mist OVC002 61 61     100%     30.21        
Sep 16 06:01 Calm 2 Fog/Mist OVC002 60 60     100%     30.21        
Sep 16 05:53 Calm 10 Cloudy OVC004 60 60     100%     30.2 30.2      
Sep 16 05:49 Calm 10 Cloudy OVC004 61 61     100%     30.2        
Sep 16 05:42 Calm 2.5 Fog/Mist OVC004 61 61     100%     30.2        
Sep 16 05:28 Calm 0.75 Fog/Mist VV004 59 59     100%     30.2        
Sep 16 05:20 Calm 2.5 Fog/Mist OVC003 60 60     100%     30.19        
Sep 16 05:13 Calm 0.5 Fog VV003 60 60     100%     30.19        
Sep 16 04:53 Calm 0.25 Fog VV002 60 60     100%     30.19 30.19      
Sep 16 04:44 Calm 0.75 Fog/Mist VV002 60 60     100%     30.19        
Sep 16 04:40 Calm 1.75 Fog/Mist OVC003 61 61     100%     30.19        
Sep 16 04:29 Calm 6 Fog/Mist OVC004 60 60     100%     30.19        
Sep 16 04:22 Calm 2.5 Fog/Mist BKN004 60 60     100%     30.19        
Sep 16 04:10 Calm 0.75 Fog/Mist VV004 60 60     100%     30.19        
Sep 16 04:06 Calm 2.5 Fog/Mist BKN004 61 61     100%     30.19        
Sep 16 03:57 Calm 4 Fog/Mist SCT002 60 60     100%     30.19        
Sep 16 03:53 Calm 1 Fog/Mist VV002 61 61     100%     30.19 30.18      
Sep 16 03:38 Calm 0.5 Fog VV002 61 61     100%     30.19        
Sep 16 03:25 Calm 0.25 Fog VV002 61 61     100%     30.19        
Sep 16 03:00 Calm 0.5 Fog VV002 61 61     100%     30.19        
Sep 16 02:53 Calm 1 Fog/Mist VV002 60 60     100%     30.19 30.18      
Sep 16 02:19 Calm 9 Clear CLR 62 62     100%     30.18        
Sep 16 02:12 Calm 2 Fog/Mist CLR 62 62     100%     30.18        
Sep 16 02:03 Calm 0.75 Fog/Mist CLR 62 62     100%     30.18        
Sep 16 01:56 Calm 2 Fog/Mist CLR 62 62     100%     30.18        
Sep 16 01:53 Calm 0.75 Fog/Mist CLR 62 62     100%     30.18 30.17      
Sep 16 01:32 SSW 3 0.5 Fog CLR 61 61     100%     30.18        
Sep 16 01:23 Calm 1.5 Fog/Mist CLR 62 62     100%     30.18        
Sep 16 01:01 Calm 4 Fog/Mist FEW002 63 63     100%     30.18        
Sep 16 00:59 Calm 1.5 Fog/Mist FEW002 63 63     100%     30.18        
Sep 16 00:53 Calm 0.5 Fog VV002 63 63     100%     30.18 30.17      
Sep 16 00:46 Calm 0.75 Fog/Mist VV002 62 62     100%     30.18        
Sep 16 00:42 Calm 1.75 Fog/Mist FEW002 62 62     100%     30.18        
Sep 16 00:39 Calm 3 Fog/Mist FEW002 63 63     100%     30.17        
Sep 16 00:36 Calm 1.25 Fog/Mist FEW002 64 64     100%     30.17        
Sep 16 00:24 Calm 0.5 Fog VV002 64 64     100%     30.18        
Sep 16 00:05 Calm 0.5 Fog CLR 63 63     100%     30.18        
Sep 15 23:56 Calm 1.5 Fog/Mist CLR 63 63     100%     30.18        
Sep 15 23:53 Calm 3 Fog/Mist CLR 63 63     100%     30.18 30.18      
Sep 15 23:51 Calm 2.5 Fog/Mist CLR 64 64     100%     30.18        
Sep 15 23:29 Calm 0.5 Fog CLR 64 64     100%     30.18        
Sep 15 23:19 Calm 1.75 Fog/Mist CLR 64 64     100%     30.18        
Sep 15 23:00 Calm 4 Fog/Mist CLR 65 65     100%     30.18        
Sep 15 22:53 Calm 1 Fog/Mist CLR 65 65     100%     30.18 30.17      
Sep 15 22:47 Calm 1.5 Fog/Mist CLR 64 64     100%     30.18        
Sep 15 22:34 Calm 3 Fog/Mist CLR 65 65     100%     30.17        
Sep 15 22:26 Calm 2 Fog/Mist CLR 66 66     100%     30.17        
Sep 15 22:09 Calm 0.75 Fog/Mist CLR 66 66     100%     30.17        
Sep 15 22:01 Calm 2.5 Fog/Mist CLR 67 67     100%     30.17        
Sep 15 21:53 Calm 0.75 Fog/Mist CLR 66 66     100%     30.17 30.17      
Sep 15 21:47 Calm 1.5 Fog/Mist FEW110 66 66     100%     30.17        
Sep 15 21:22 Calm 3 Fog/Mist BKN110 67 67     100%     30.17        
Sep 15 21:12 Calm 1.75 Fog/Mist BKN110 67 67     100%     30.17        
Sep 15 20:53 Calm 10 Partly Cloudy SCT110 68 68     100%     30.17 30.17      
Sep 15 19:53 Calm 10 Mostly Cloudy BKN110 70 69     97%     30.16 30.15      
Sep 15 18:53 Calm 10 Partly Cloudy SCT120 73 69     87%   74 30.15 30.15      
Sep 15 17:53 Calm 10 Clear CLR 80 70     71%   83 30.15 30.14      
Sep 15 16:53 Calm 10 Clear CLR 81 66     61%   83 30.16 30.15      
Sep 15 15:53 SSE 3 10 Clear CLR 81 67     62%   83 30.16 30.16      
Sep 15 14:53 3 10 Clear CLR 80 67     64%   82 30.18 30.18      
Sep 15 13:53 Calm 10 Clear CLR 76 68     76%   77 30.2 30.19      
Sep 15 12:53 S 5 10 Partly Cloudy SCT049 74 67     79%   75 30.21 30.21      
Sep 15 12:03 SE 5 10 Partly Cloudy SCT014 72 67     84%   73 30.22        
Sep 15 11:53 5 8 Mostly Cloudy BKN014 71 67     87%   72 30.22 30.22      
Sep 15 11:06 Calm 10 Cloudy OVC010 69 66     90%     30.23        
Sep 15 10:53 Calm 9 Cloudy OVC008 69 66     90%     30.23 30.23      
Sep 15 09:53 Calm 10 Cloudy OVC007 67 66     97%     30.22 30.22      
Sep 15 08:53 Calm 10 Cloudy OVC006 67 66     97%     30.22 30.22      
Sep 15 08:12 Calm 10 Cloudy OVC006 66 66     100%     30.22        
Sep 15 07:53 S 3 6 Fog/Mist OVC004 66 66     100%     30.22 30.22      
Sep 15 07:45 SSE 3 5 Fog/Mist BKN004 OVC008 66 66     100%     30.22        
Sep 15 06:53 Calm 6 Fog/Mist OVC005 66 66     100%     30.21 30.21      
Sep 15 06:16 Calm 10 Cloudy OVC005 65 65     100%     30.21        
Sep 15 05:53 Calm 10 Cloudy OVC004 65 65     100%     30.21 30.2      
Sep 15 05:46 Calm 10 Cloudy OVC004 64 64     100%     30.2        
Sep 15 05:14 Calm 5 Fog/Mist BKN006 OVC017 63 63     100%     30.2        
Sep 15 04:53 Calm 10 Cloudy SCT007 OVC017 63 63     100%     30.2 30.19      
Sep 15 04:26 Calm 6 Fog/Mist BKN007 OVC018 63 63     100%     30.2        
Sep 15 04:11 Calm 8 Cloudy FEW009 OVC018 63 63     100%     30.2        
Sep 15 03:53 Calm 10 Cloudy FEW011 OVC017 63 63     100%     30.2 30.19      
Sep 15 03:36 Calm 10 Cloudy FEW010 OVC015 63 63     100%     30.2        
Sep 15 03:15 Calm 9 Cloudy OVC013 63 63     100%     30.19        
Sep 15 02:53 Calm 10 Cloudy OVC009 63 63     100%     30.2 30.19      
Sep 15 02:39 Calm 10 Cloudy OVC009 63 63     100%     30.19        
Sep 15 02:04 Calm 10 Mostly Cloudy BKN012 BKN017 61 61     100%     30.2        
Sep 15 01:53 Calm 10 Mostly Cloudy BKN016 61 61     100%     30.2 30.19      
Sep 15 01:35 Calm 8 Cloudy SCT012 OVC018 61 61     100%     30.2        
Sep 15 01:13 Calm 2 Fog/Mist FEW006 BKN012 OVC017 60 60     100%     30.2        
Sep 15 01:08 Calm 0.75 Fog/Mist SCT005 OVC012 60 60     100%     30.21        
Sep 15 00:58 Calm 1.5 Fog/Mist SCT005 OVC010 59 59     100%     30.21        
Sep 15 00:53 Calm 0.75 Fog/Mist BKN003 OVC010 59 59     100%     30.21 30.21      
Sep 15 00:45 Calm 0.5 Fog BKN002 OVC010 60 60     100%     30.21        
Sep 15 00:28 Calm 0.25 Fog VV002 59 59     100%     30.21        
Sep 15 00:23 Calm 0.75 Fog/Mist BKN003 BKN020 59 59     100%     30.21        
Sep 15 00:20 Calm 2 Fog/Mist SCT003 BKN020 59 59     100%     30.21        
Sep 15 00:18 Calm 7 Partly Cloudy SCT003 SCT020 60 60     100%     30.22        
Sep 15 00:09 Calm 2 Fog/Mist FEW002 60 60     100%     30.22        
Sep 14 23:53 Calm 10 Mostly Clear FEW002 61 61     100%     30.22 30.22      
Sep 14 23:39 Calm 10 Clear CLR 61 61     100%     30.22        
Sep 14 23:32 Calm 2.5 Fog/Mist CLR 60 60     100%     30.22        
Sep 14 23:24 Calm 0.5 Fog CLR 60 60     100%     30.22        
Sep 14 23:03 Calm 1.75 Fog/Mist CLR 61 61     100%     30.22        
Sep 14 22:53 Calm 10 Clear CLR 62 62     100%     30.21 30.21      
Sep 14 22:46 Calm 3 Fog/Mist CLR 62 61     96%     30.21        
Sep 14 22:26 Calm 1.5 Fog/Mist CLR 62 62     100%     30.21        
Sep 14 22:00 Calm 10 Clear CLR 62 62     100%     30.2        
Sep 14 21:53 Calm 2.5 Fog/Mist CLR 63 63     100%     30.2 30.2      
Sep 14 21:44 Calm 2 Fog/Mist CLR 63 63     100%     30.2        
Sep 14 21:39 Calm 0.75 Fog/Mist CLR 63 63     100%     30.2        
Sep 14 21:26 Calm 1.75 Fog/Mist CLR 62 62     100%     30.2        
Sep 14 20:53 Calm 10 Clear CLR 64 64     100%     30.2 30.2      
Sep 14 19:53 Calm 10 Mostly Clear FEW038 66 64     93%     30.18 30.18      
Sep 14 18:53 Calm 10 Clear CLR 71 66     84%   72 30.18 30.17      
Sep 14 17:53 S 5 10 Clear CLR 77 65     66%   78 30.17 30.17      
Sep 14 16:53 Calm 10 Clear CLR 79 62     56%   79 30.18 30.17      
Sep 14 15:53 S 5 10 Clear CLR 79 63     58%   79 30.19 30.19      
Sep 14 14:53 SE 3 10 Clear CLR 78 64     62%   79 30.21 30.2      
May 15 04:53 Calm 10 Mostly Cloudy BKN090 56 54     93%     29.8 29.79      
May 14 03:42 SSW 7 10 Cloudy BKN014 BKN026 OVC039 53 49     86%     29.98        
May 13 22:53 SSW 10 10 Clear CLR 53 48     83%     30.03 30.03      
May 13 18:53 SSW 9 10 Clear CLR 66 44     45%     29.99 30      
Notice The following observation data may not be complete
May 13 00:13 Calm 0.75 Fog/Mist VV003   35      %     30.15        
May 12 11:53 5 10 Cloudy OVC065 51 33     50%     30.16 30.17 0    
May 12 10:53 Calm 10 Light Rain BKN085 OVC120 50 33     52%     30.17 30.19 0 0  
May 11 15:53   10 Clear CLR 60 31     33%     30.03 30.03      
Jun 09 08:53 S 5 10 Mostly Cloudy BKN070 64 51     63%     29.71 29.7      
Jun 07 20:15 Calm 10 Mostly Clear FEW002 64 52     65%     29.98